GSAT-29

operational
NORAD ID: 43698 Int'l Des: 2018-089 Owner: ISRO Country: IN
HEOCIRCULARGSOGEO

GSAT-29について

説明を読み込み中...

リアルタイム位置

3D地球を読み込み中...

次回通過

高度履歴

Altitude vs Time

uPlot chart will show altitude changes over time

軌道要素

1 43698U 18089A 26062.62168363 .00000071 00000-0 00000-0 0 9995
2 43698 0.0597 273.8254 0001825 51.7619 114.6096 1.00271441 26723
Epoch: Mar 3, 2026 • Age: 28 hours

現在のステータス

高度 35780.7 km
速度 3.08 km/s
衛星直下点 0.03°N, 55.01°E
打ち上げ日 Nov 14, 2018
運用期間 7.3 years
タイプ other

技術仕様

分類 Payload
質量 3423.00 kg
乾燥質量 1500.00 kg
総質量 3423.00 kg
長さ 3.10 m
直径 1.80 m
スパン 20.00 m
形状 Box + 2 pan
製造者 ISAC
バスタイプ I3K
フェーズステータス In Orbit
所有者/国 ISRO/IN

大規模コンステレーション

Loading constellations...